Year,Month,Day,Hour,Minute,Value (Times are PST for temperature in C)
2022,04,24,00,00,5.60
2022,04,24,00,01,5.60
2022,04,24,00,02,5.60
2022,04,24,00,03,5.60
2022,04,24,00,04,5.60
2022,04,24,00,05,5.50
2022,04,24,00,06,5.50
2022,04,24,00,07,5.50
2022,04,24,00,08,5.50
2022,04,24,00,09,5.40
2022,04,24,00,10,5.40
2022,04,24,00,11,5.40
2022,04,24,00,12,5.40
2022,04,24,00,13,5.40
2022,04,24,00,14,5.40
2022,04,24,00,15,5.40
2022,04,24,00,16,5.40
2022,04,24,00,17,5.40
2022,04,24,00,18,5.40
2022,04,24,00,19,5.40
2022,04,24,00,20,5.40
2022,04,24,00,21,5.40
2022,04,24,00,22,5.40
2022,04,24,00,23,5.30
2022,04,24,00,24,5.30
2022,04,24,00,25,5.30
2022,04,24,00,26,5.30
2022,04,24,00,27,5.30
2022,04,24,00,28,5.30
2022,04,24,00,29,5.30
2022,04,24,00,30,5.30
2022,04,24,00,31,5.30
2022,04,24,00,32,5.30
2022,04,24,00,33,5.30
2022,04,24,00,34,5.30
2022,04,24,00,35,5.30
2022,04,24,00,36,5.30
2022,04,24,00,37,5.30
2022,04,24,00,38,5.30
2022,04,24,00,39,5.30
2022,04,24,00,40,5.30
2022,04,24,00,41,5.30
2022,04,24,00,42,5.30
2022,04,24,00,43,5.30
2022,04,24,00,44,5.30
2022,04,24,00,45,5.30
2022,04,24,00,46,5.30
2022,04,24,00,47,5.30
2022,04,24,00,48,5.30
2022,04,24,00,49,5.30
2022,04,24,00,50,5.30
2022,04,24,00,51,5.30
2022,04,24,00,52,5.30
2022,04,24,00,53,5.30
2022,04,24,00,54,5.30
2022,04,24,00,55,5.30
2022,04,24,00,56,5.30
2022,04,24,00,57,5.30
2022,04,24,00,58,5.30
2022,04,24,00,59,5.30
2022,04,24,01,00,5.30
2022,04,24,01,01,5.20
2022,04,24,01,02,5.20
2022,04,24,01,03,5.20
2022,04,24,01,04,5.20
2022,04,24,01,05,5.20
2022,04,24,01,06,5.20
2022,04,24,01,07,5.20
2022,04,24,01,08,5.20
2022,04,24,01,09,5.20
2022,04,24,01,10,5.20
2022,04,24,01,11,5.20
2022,04,24,01,12,5.20
2022,04,24,01,13,5.20
2022,04,24,01,14,5.20
2022,04,24,01,15,5.20
2022,04,24,01,16,5.20
2022,04,24,01,17,5.20
2022,04,24,01,18,5.20
2022,04,24,01,19,5.20
2022,04,24,01,20,5.20
2022,04,24,01,21,5.20
2022,04,24,01,22,5.10
2022,04,24,01,23,5.10
2022,04,24,01,24,5.10
2022,04,24,01,25,5.10
2022,04,24,01,26,5.10
2022,04,24,01,27,5.10
2022,04,24,01,28,5.00
2022,04,24,01,29,5.00
2022,04,24,01,30,5.00
2022,04,24,01,31,5.00
2022,04,24,01,32,5.00
2022,04,24,01,33,4.90
2022,04,24,01,34,4.90
2022,04,24,01,35,4.90
2022,04,24,01,36,4.90
2022,04,24,01,37,4.90
2022,04,24,01,38,4.90
2022,04,24,01,39,4.90
2022,04,24,01,40,4.90
2022,04,24,01,41,4.90
2022,04,24,01,42,4.90
2022,04,24,01,43,4.90
2022,04,24,01,44,4.90
2022,04,24,01,45,4.90
2022,04,24,01,46,4.90
2022,04,24,01,47,4.80
2022,04,24,01,48,4.80
2022,04,24,01,49,4.80
2022,04,24,01,50,4.80
2022,04,24,01,51,4.80
2022,04,24,01,52,4.80
2022,04,24,01,53,4.80
2022,04,24,01,54,4.80
2022,04,24,01,55,4.80
2022,04,24,01,56,4.80
2022,04,24,01,57,4.70
2022,04,24,01,58,4.70
2022,04,24,01,59,4.70
2022,04,24,02,00,4.70
2022,04,24,02,01,4.70
2022,04,24,02,02,4.70
2022,04,24,02,03,4.70
2022,04,24,02,04,4.70
2022,04,24,02,05,4.70
2022,04,24,02,06,4.70
2022,04,24,02,07,4.70
2022,04,24,02,08,4.70
2022,04,24,02,09,4.70
2022,04,24,02,10,4.70
2022,04,24,02,11,4.70
2022,04,24,02,12,4.70
2022,04,24,02,13,4.70
2022,04,24,02,14,4.70
2022,04,24,02,15,4.70
2022,04,24,02,16,4.70
2022,04,24,02,17,4.70
2022,04,24,02,18,4.70
2022,04,24,02,19,4.70
2022,04,24,02,20,4.70
2022,04,24,02,21,4.70
2022,04,24,02,22,4.70
2022,04,24,02,23,4.70
2022,04,24,02,24,4.70
2022,04,24,02,25,4.70
2022,04,24,02,26,4.60
2022,04,24,02,27,4.60
2022,04,24,02,28,4.60
2022,04,24,02,29,4.60
2022,04,24,02,30,4.60
2022,04,24,02,31,4.60
2022,04,24,02,32,4.60
2022,04,24,02,33,4.60
2022,04,24,02,34,4.60
2022,04,24,02,35,4.60
2022,04,24,02,36,4.50
2022,04,24,02,37,4.50
2022,04,24,02,38,4.50
2022,04,24,02,39,4.50
2022,04,24,02,40,4.40
2022,04,24,02,41,4.40
2022,04,24,02,42,4.40
2022,04,24,02,43,4.40
2022,04,24,02,44,4.40
2022,04,24,02,45,4.40
2022,04,24,02,46,4.40
2022,04,24,02,47,4.50
2022,04,24,02,48,4.50
2022,04,24,02,49,4.50
2022,04,24,02,50,4.50
2022,04,24,02,51,4.60
2022,04,24,02,52,4.60
2022,04,24,02,53,4.60
2022,04,24,02,54,4.60
2022,04,24,02,55,4.60
2022,04,24,02,56,4.60
2022,04,24,02,57,4.60
2022,04,24,02,58,4.60
2022,04,24,02,59,4.60
2022,04,24,03,00,4.60
2022,04,24,03,01,4.60
2022,04,24,03,02,4.60
2022,04,24,03,03,4.60
2022,04,24,03,04,4.60
2022,04,24,03,05,4.60
2022,04,24,03,06,4.60
2022,04,24,03,07,4.60
2022,04,24,03,08,4.60
2022,04,24,03,09,4.60
2022,04,24,03,10,4.60
2022,04,24,03,11,4.60
2022,04,24,03,12,4.60
2022,04,24,03,13,4.60
2022,04,24,03,14,4.60
2022,04,24,03,15,4.60
2022,04,24,03,16,4.60
2022,04,24,03,17,4.60
2022,04,24,03,18,4.60
2022,04,24,03,19,4.70
2022,04,24,03,20,4.70
2022,04,24,03,21,4.60
2022,04,24,03,22,4.60
2022,04,24,03,23,4.60
2022,04,24,03,24,4.60
2022,04,24,03,25,4.60
2022,04,24,03,26,4.60
2022,04,24,03,27,4.60
2022,04,24,03,28,4.60
2022,04,24,03,29,4.60
2022,04,24,03,30,4.60
2022,04,24,03,31,4.60
2022,04,24,03,32,4.60
2022,04,24,03,33,4.60
2022,04,24,03,34,4.60
2022,04,24,03,35,4.60
2022,04,24,03,36,4.60
2022,04,24,03,37,4.60
2022,04,24,03,38,4.60
2022,04,24,03,39,4.60
2022,04,24,03,40,4.60
2022,04,24,03,41,4.60
2022,04,24,03,42,4.60
2022,04,24,03,43,4.60
2022,04,24,03,44,4.50
2022,04,24,03,45,4.50
2022,04,24,03,46,4.50
2022,04,24,03,47,4.50
2022,04,24,03,48,4.50
2022,04,24,03,49,4.50
2022,04,24,03,50,4.50
2022,04,24,03,51,4.50
2022,04,24,03,52,4.50
2022,04,24,03,53,4.50
2022,04,24,03,54,4.50
2022,04,24,03,55,4.50
2022,04,24,03,56,4.50
2022,04,24,03,57,4.50
2022,04,24,03,58,4.50
2022,04,24,03,59,4.50
2022,04,24,04,00,4.50
2022,04,24,04,01,4.50
2022,04,24,04,02,4.50
2022,04,24,04,03,4.50
2022,04,24,04,04,4.50
2022,04,24,04,05,4.50
2022,04,24,04,06,4.50
2022,04,24,04,07,4.50
2022,04,24,04,08,4.50
2022,04,24,04,09,4.50
2022,04,24,04,10,4.50
2022,04,24,04,11,4.50
2022,04,24,04,12,4.50
2022,04,24,04,13,4.50
2022,04,24,04,14,4.50
2022,04,24,04,15,4.50
2022,04,24,04,16,4.40
2022,04,24,04,17,4.40
2022,04,24,04,18,4.40
2022,04,24,04,19,4.40
2022,04,24,04,20,4.40
2022,04,24,04,21,4.40
2022,04,24,04,22,4.40
2022,04,24,04,23,4.40
2022,04,24,04,24,4.40
2022,04,24,04,25,4.30
2022,04,24,04,26,4.30
2022,04,24,04,27,4.30
2022,04,24,04,28,4.30
2022,04,24,04,29,4.30
2022,04,24,04,30,4.30
2022,04,24,04,31,4.30
2022,04,24,04,32,4.30
2022,04,24,04,33,4.30
2022,04,24,04,34,4.30
2022,04,24,04,35,4.30
2022,04,24,04,36,4.30
2022,04,24,04,37,4.30
2022,04,24,04,38,4.30
2022,04,24,04,39,4.30
2022,04,24,04,40,4.30
2022,04,24,04,41,4.30
2022,04,24,04,42,4.30
2022,04,24,04,43,4.30
2022,04,24,04,44,4.30
2022,04,24,04,45,4.30
2022,04,24,04,46,4.20
2022,04,24,04,47,4.20
2022,04,24,04,48,4.20
2022,04,24,04,49,4.20
2022,04,24,04,50,4.20
2022,04,24,04,51,4.20
2022,04,24,04,52,4.20
2022,04,24,04,53,4.20
2022,04,24,04,54,4.20
2022,04,24,04,55,4.20
2022,04,24,04,56,4.10
2022,04,24,04,57,4.10
2022,04,24,04,58,4.10
2022,04,24,04,59,4.10
2022,04,24,05,00,4.10
2022,04,24,05,01,4.10
2022,04,24,05,02,4.10
2022,04,24,05,03,4.10
2022,04,24,05,04,4.10
2022,04,24,05,05,4.10
2022,04,24,05,06,4.10
2022,04,24,05,07,4.10
2022,04,24,05,08,4.10
2022,04,24,05,09,4.10
2022,04,24,05,10,4.10
2022,04,24,05,11,4.10
2022,04,24,05,12,4.10
2022,04,24,05,13,4.10
2022,04,24,05,14,4.10
2022,04,24,05,15,4.10
2022,04,24,05,16,4.00
2022,04,24,05,17,4.00
2022,04,24,05,18,4.00
2022,04,24,05,19,4.00
2022,04,24,05,20,4.00
2022,04,24,05,21,3.90
2022,04,24,05,22,3.90
2022,04,24,05,23,3.90
2022,04,24,05,24,3.90
2022,04,24,05,25,3.90
2022,04,24,05,26,3.90
2022,04,24,05,27,3.90
2022,04,24,05,28,3.90
2022,04,24,05,29,3.90
2022,04,24,05,30,3.90
2022,04,24,05,31,3.90
2022,04,24,05,32,3.90
2022,04,24,05,33,3.90
2022,04,24,05,34,3.90
2022,04,24,05,35,3.90
2022,04,24,05,36,3.90
2022,04,24,05,37,3.90
2022,04,24,05,38,3.80
2022,04,24,05,39,3.80
2022,04,24,05,40,3.80
2022,04,24,05,41,3.80
2022,04,24,05,42,3.80
2022,04,24,05,43,3.90
2022,04,24,05,44,3.90
2022,04,24,05,45,3.90
2022,04,24,05,46,3.80
2022,04,24,05,47,3.80
2022,04,24,05,48,3.80
2022,04,24,05,49,3.80
2022,04,24,05,50,3.80
2022,04,24,05,51,3.80
2022,04,24,05,52,3.80
2022,04,24,05,53,3.80
2022,04,24,05,54,3.80
2022,04,24,05,55,3.80
2022,04,24,05,56,3.80
2022,04,24,05,57,3.80
2022,04,24,05,58,3.80
2022,04,24,05,59,3.80
2022,04,24,06,00,3.80
2022,04,24,06,01,3.80
2022,04,24,06,02,3.80
2022,04,24,06,03,3.80
2022,04,24,06,04,3.70
2022,04,24,06,05,3.70
2022,04,24,06,06,3.70
2022,04,24,06,07,3.70
2022,04,24,06,08,3.70
2022,04,24,06,09,3.70
2022,04,24,06,10,3.70
2022,04,24,06,11,3.60
2022,04,24,06,12,3.60
2022,04,24,06,13,3.60
2022,04,24,06,14,3.60
2022,04,24,06,15,3.60
2022,04,24,06,16,3.60
2022,04,24,06,17,3.60
2022,04,24,06,18,3.60
2022,04,24,06,19,3.60
2022,04,24,06,20,3.60
2022,04,24,06,21,3.60
2022,04,24,06,22,3.60
2022,04,24,06,23,3.60
2022,04,24,06,24,3.60
2022,04,24,06,25,3.60
2022,04,24,06,26,3.60
2022,04,24,06,27,3.60
2022,04,24,06,28,3.60
2022,04,24,06,29,3.60
2022,04,24,06,30,3.60
2022,04,24,06,31,3.60
2022,04,24,06,32,3.60
2022,04,24,06,33,3.60
2022,04,24,06,34,3.60
2022,04,24,06,35,3.60
2022,04,24,06,36,3.60
2022,04,24,06,37,3.60
2022,04,24,06,38,3.60
2022,04,24,06,39,3.60
2022,04,24,06,40,3.60
2022,04,24,06,41,3.60
2022,04,24,06,42,3.60
2022,04,24,06,43,3.60
2022,04,24,06,44,3.60
2022,04,24,06,45,3.60
2022,04,24,06,46,3.60
2022,04,24,06,47,3.60
2022,04,24,06,48,3.60
2022,04,24,06,49,3.70
2022,04,24,06,50,3.70
2022,04,24,06,51,3.70
2022,04,24,06,52,3.70
2022,04,24,06,53,3.70
2022,04,24,06,54,3.70
2022,04,24,06,55,3.80
2022,04,24,06,56,3.80
2022,04,24,06,57,3.80
2022,04,24,06,58,3.90
2022,04,24,06,59,3.90
2022,04,24,07,00,3.90
2022,04,24,07,01,3.90
2022,04,24,07,02,4.00
2022,04,24,07,03,4.10
2022,04,24,07,04,4.20
2022,04,24,07,05,4.30
2022,04,24,07,06,4.30
2022,04,24,07,07,4.40
2022,04,24,07,08,4.50
2022,04,24,07,09,4.60
2022,04,24,07,10,4.70
2022,04,24,07,11,4.70
2022,04,24,07,12,4.80
2022,04,24,07,13,4.90
2022,04,24,07,14,5.00
2022,04,24,07,15,5.10
2022,04,24,07,16,5.20
2022,04,24,07,17,5.30
2022,04,24,07,18,5.40
2022,04,24,07,19,5.60
2022,04,24,07,20,5.80
2022,04,24,07,21,5.90
2022,04,24,07,22,6.00
2022,04,24,07,23,6.10
2022,04,24,07,24,6.30
2022,04,24,07,25,6.40
2022,04,24,07,26,6.50
2022,04,24,07,27,6.60
2022,04,24,07,28,6.80
2022,04,24,07,29,6.90
2022,04,24,07,30,7.00
2022,04,24,07,31,7.10
2022,04,24,07,32,7.20
2022,04,24,07,33,7.30
2022,04,24,07,34,7.40
2022,04,24,07,35,7.60
2022,04,24,07,36,7.70
2022,04,24,07,37,7.80
2022,04,24,07,38,7.90
2022,04,24,07,39,8.00
2022,04,24,07,40,8.10
2022,04,24,07,41,8.20
2022,04,24,07,42,8.30
2022,04,24,07,43,8.30
2022,04,24,07,44,8.40
2022,04,24,07,45,8.40
2022,04,24,07,46,8.40
2022,04,24,07,47,8.40
2022,04,24,07,48,8.40
2022,04,24,07,49,8.40
2022,04,24,07,50,8.40
2022,04,24,07,51,8.40
2022,04,24,07,52,8.40
2022,04,24,07,53,8.40
2022,04,24,07,54,8.40
2022,04,24,07,55,8.40
2022,04,24,07,56,8.50
2022,04,24,07,57,8.50
2022,04,24,07,58,8.50
2022,04,24,07,59,8.60
2022,04,24,08,00,8.60
2022,04,24,08,01,8.60
2022,04,24,08,02,8.70
2022,04,24,08,03,8.70
2022,04,24,08,04,8.70
2022,04,24,08,05,8.70
2022,04,24,08,06,8.70
2022,04,24,08,07,8.70
2022,04,24,08,08,8.70
2022,04,24,08,09,8.60
2022,04,24,08,10,8.60
2022,04,24,08,11,8.60
2022,04,24,08,12,8.70
2022,04,24,08,13,8.70
2022,04,24,08,14,8.70
2022,04,24,08,15,8.70
2022,04,24,08,16,8.70
2022,04,24,08,17,8.70
2022,04,24,08,18,8.70
2022,04,24,08,19,8.70
2022,04,24,08,20,8.70
2022,04,24,08,21,8.80
2022,04,24,08,22,8.80
2022,04,24,08,23,8.90
2022,04,24,08,24,9.00
2022,04,24,08,25,9.10
2022,04,24,08,26,9.20
2022,04,24,08,27,9.20
2022,04,24,08,28,9.30
2022,04,24,08,29,9.40
2022,04,24,08,30,9.50
2022,04,24,08,31,9.50
2022,04,24,08,32,9.60
2022,04,24,08,33,9.70
2022,04,24,08,34,9.80
2022,04,24,08,35,9.90
2022,04,24,08,36,10.00
2022,04,24,08,37,10.20
2022,04,24,08,38,10.30
2022,04,24,08,39,10.40
2022,04,24,08,40,10.50
2022,04,24,08,41,10.60
2022,04,24,08,42,10.60
2022,04,24,08,43,10.70
2022,04,24,08,44,10.80
2022,04,24,08,45,10.80
2022,04,24,08,46,10.90
2022,04,24,08,47,10.90
2022,04,24,08,48,11.00
2022,04,24,08,49,11.00
2022,04,24,08,50,11.00
2022,04,24,08,51,11.00
2022,04,24,08,52,11.00
2022,04,24,08,53,11.00
2022,04,24,08,54,11.00
2022,04,24,08,55,11.00
2022,04,24,08,56,11.00
2022,04,24,08,57,11.00
2022,04,24,08,58,11.00
2022,04,24,08,59,11.00
2022,04,24,09,00,11.00
2022,04,24,09,01,11.10
2022,04,24,09,02,11.10
2022,04,24,09,03,11.10
2022,04,24,09,04,11.10
2022,04,24,09,05,11.10
2022,04,24,09,06,11.10
2022,04,24,09,07,11.10
2022,04,24,09,08,11.10
2022,04,24,09,09,11.00
2022,04,24,09,10,11.00
2022,04,24,09,11,11.00
2022,04,24,09,12,11.10
2022,04,24,09,13,11.10
2022,04,24,09,14,11.10
2022,04,24,09,15,11.10
2022,04,24,09,16,11.10
2022,04,24,09,17,11.20
2022,04,24,09,18,11.20
2022,04,24,09,19,11.20
2022,04,24,09,20,11.30
2022,04,24,09,21,11.30
2022,04,24,09,22,11.30
2022,04,24,09,23,11.30
2022,04,24,09,24,11.30
2022,04,24,09,25,11.30
2022,04,24,09,26,11.30
2022,04,24,09,27,11.20
2022,04,24,09,28,11.20
2022,04,24,09,29,11.20
2022,04,24,09,30,11.20
2022,04,24,09,31,11.20
2022,04,24,09,32,11.20
2022,04,24,09,33,11.20
2022,04,24,09,34,11.20
2022,04,24,09,35,11.20
2022,04,24,09,36,11.20
2022,04,24,09,37,11.20
2022,04,24,09,38,11.30
2022,04,24,09,39,11.30
2022,04,24,09,40,11.30
2022,04,24,09,41,11.30
2022,04,24,09,42,11.30
2022,04,24,09,43,11.20
2022,04,24,09,44,11.20
2022,04,24,09,45,11.20
2022,04,24,09,46,11.20
2022,04,24,09,47,11.20
2022,04,24,09,48,11.20
2022,04,24,09,49,11.20
2022,04,24,09,50,11.20
2022,04,24,09,51,11.30
2022,04,24,09,52,11.30
2022,04,24,09,53,11.30
2022,04,24,09,54,11.30
2022,04,24,09,55,11.40
2022,04,24,09,56,11.40
2022,04,24,09,57,11.40
2022,04,24,09,58,11.40
2022,04,24,09,59,11.40
2022,04,24,10,00,11.40
2022,04,24,10,01,11.30
2022,04,24,10,02,11.40
2022,04,24,10,03,11.30
2022,04,24,10,04,11.40
2022,04,24,10,05,11.40
2022,04,24,10,06,11.40
2022,04,24,10,07,11.40
2022,04,24,10,08,11.40
2022,04,24,10,09,11.40
2022,04,24,10,10,11.40
2022,04,24,10,11,11.40
2022,04,24,10,12,11.40
2022,04,24,10,13,11.50
2022,04,24,10,14,11.60
2022,04,24,10,15,11.70
2022,04,24,10,16,11.70
2022,04,24,10,17,11.80
2022,04,24,10,18,11.80
2022,04,24,10,19,11.90
2022,04,24,10,20,11.90
2022,04,24,10,21,12.00
2022,04,24,10,22,12.00
2022,04,24,10,23,12.10
2022,04,24,10,24,12.10
2022,04,24,10,25,12.10
2022,04,24,10,26,12.20
2022,04,24,10,27,12.30
2022,04,24,10,28,12.40
2022,04,24,10,29,12.40
2022,04,24,10,30,12.40
2022,04,24,10,31,12.40
2022,04,24,10,32,12.40
2022,04,24,10,33,12.30
2022,04,24,10,34,12.20
2022,04,24,10,35,12.20
2022,04,24,10,36,12.10
2022,04,24,10,37,12.10
2022,04,24,10,38,12.10
2022,04,24,10,39,12.10
2022,04,24,10,40,12.20
2022,04,24,10,41,12.20
2022,04,24,10,42,12.30
2022,04,24,10,43,12.40
2022,04,24,10,44,12.50
2022,04,24,10,45,12.50
2022,04,24,10,46,12.60
2022,04,24,10,47,12.60
2022,04,24,10,48,12.60
2022,04,24,10,49,12.60
2022,04,24,10,50,12.60
2022,04,24,10,51,12.70
2022,04,24,10,52,12.70
2022,04,24,10,53,12.70
2022,04,24,10,54,12.70
2022,04,24,10,55,12.80
2022,04,24,10,56,12.80
2022,04,24,10,57,12.80
2022,04,24,10,58,12.90
2022,04,24,10,59,12.90
2022,04,24,11,00,12.80
2022,04,24,11,01,12.80
2022,04,24,11,02,12.80
2022,04,24,11,03,12.80
2022,04,24,11,04,12.70
2022,04,24,11,05,12.70
2022,04,24,11,06,12.70
2022,04,24,11,07,12.70
2022,04,24,11,08,12.60
2022,04,24,11,09,12.60
2022,04,24,11,10,12.60
2022,04,24,11,11,12.60
2022,04,24,11,12,12.60
2022,04,24,11,13,12.60
2022,04,24,11,14,12.60
2022,04,24,11,15,12.60
2022,04,24,11,16,12.60
2022,04,24,11,17,12.60
2022,04,24,11,18,12.60
2022,04,24,11,19,12.70
2022,04,24,11,20,12.70
2022,04,24,11,21,12.70
2022,04,24,11,22,12.70
2022,04,24,11,23,12.70
2022,04,24,11,24,12.80
2022,04,24,11,25,12.90
2022,04,24,11,26,13.10
2022,04,24,11,27,13.20
2022,04,24,11,28,13.30
2022,04,24,11,29,13.40
2022,04,24,11,30,13.50
2022,04,24,11,31,13.60
2022,04,24,11,32,13.70
2022,04,24,11,33,13.80
2022,04,24,11,34,13.80
2022,04,24,11,35,13.90
2022,04,24,11,36,14.00
2022,04,24,11,37,14.00
2022,04,24,11,38,14.00
2022,04,24,11,39,14.00
2022,04,24,11,40,14.00
2022,04,24,11,41,14.00
2022,04,24,11,42,14.00
2022,04,24,11,43,14.00
2022,04,24,11,44,14.00
2022,04,24,11,45,14.00
2022,04,24,11,46,14.00
2022,04,24,11,47,13.90
2022,04,24,11,48,13.90
2022,04,24,11,49,13.90
2022,04,24,11,50,13.90
2022,04,24,11,51,13.90
2022,04,24,11,52,13.90
2022,04,24,11,53,14.00
2022,04,24,11,54,14.00
2022,04,24,11,55,14.00
2022,04,24,11,56,14.10
2022,04,24,11,57,14.10
2022,04,24,11,58,14.20
2022,04,24,11,59,14.20
2022,04,24,12,00,14.10
2022,04,24,12,01,14.10
2022,04,24,12,02,14.10
2022,04,24,12,03,14.10
2022,04,24,12,04,14.20
2022,04,24,12,05,14.20
2022,04,24,12,06,14.20
2022,04,24,12,07,14.30
2022,04,24,12,08,14.30
2022,04,24,12,09,14.30
2022,04,24,12,10,14.40
2022,04,24,12,11,14.40
2022,04,24,12,12,14.50
2022,04,24,12,13,14.50
2022,04,24,12,14,14.60
2022,04,24,12,15,14.70
2022,04,24,12,16,14.80
2022,04,24,12,17,14.80
2022,04,24,12,18,14.90
2022,04,24,12,19,14.90
2022,04,24,12,20,14.90
2022,04,24,12,21,14.90
2022,04,24,12,22,14.90
2022,04,24,12,23,14.90
2022,04,24,12,24,14.80
2022,04,24,12,25,14.80
2022,04,24,12,26,14.70
2022,04,24,12,27,14.60
2022,04,24,12,28,14.50
2022,04,24,12,29,14.50
2022,04,24,12,30,14.40
2022,04,24,12,31,14.30
2022,04,24,12,32,14.30
2022,04,24,12,33,14.30
2022,04,24,12,34,14.30
2022,04,24,12,35,14.30
2022,04,24,12,36,14.30
2022,04,24,12,37,14.40
2022,04,24,12,38,14.30
2022,04,24,12,39,14.30
2022,04,24,12,40,14.30
2022,04,24,12,41,14.30
2022,04,24,12,42,14.30
2022,04,24,12,43,14.30
2022,04,24,12,44,14.40
2022,04,24,12,45,14.40
2022,04,24,12,46,14.40
2022,04,24,12,47,14.40
2022,04,24,12,48,14.50
2022,04,24,12,49,14.50
2022,04,24,12,50,14.60
2022,04,24,12,51,14.60
2022,04,24,12,52,14.70
2022,04,24,12,53,14.70
2022,04,24,12,54,14.70
2022,04,24,12,55,14.70
2022,04,24,12,56,14.70
2022,04,24,12,57,14.70
2022,04,24,12,58,14.70
2022,04,24,12,59,14.70
2022,04,24,13,00,14.80
2022,04,24,13,01,14.90
2022,04,24,13,02,14.90
2022,04,24,13,03,15.00
2022,04,24,13,04,15.00
2022,04,24,13,05,15.00
2022,04,24,13,06,15.00
2022,04,24,13,07,15.00
2022,04,24,13,08,15.00
2022,04,24,13,09,15.10
2022,04,24,13,10,15.10
2022,04,24,13,11,15.10
2022,04,24,13,12,15.10
2022,04,24,13,13,15.10
2022,04,24,13,14,15.10
2022,04,24,13,15,15.10
2022,04,24,13,16,15.10
2022,04,24,13,17,15.00
2022,04,24,13,18,15.00
2022,04,24,13,19,15.00
2022,04,24,13,20,15.00
2022,04,24,13,21,15.00
2022,04,24,13,22,15.00
2022,04,24,13,23,15.00
2022,04,24,13,24,15.10
2022,04,24,13,25,15.00
2022,04,24,13,26,15.10
2022,04,24,13,27,15.10
2022,04,24,13,28,15.10
2022,04,24,13,29,15.10
2022,04,24,13,30,15.10
2022,04,24,13,31,15.20
2022,04,24,13,32,15.20
2022,04,24,13,33,15.30
2022,04,24,13,34,15.30
2022,04,24,13,35,15.40
2022,04,24,13,36,15.40
2022,04,24,13,37,15.40
2022,04,24,13,38,15.50
2022,04,24,13,39,15.60
2022,04,24,13,40,15.70
2022,04,24,13,41,15.80
2022,04,24,13,42,15.80
2022,04,24,13,43,15.90
2022,04,24,13,44,16.00
2022,04,24,13,45,16.10
2022,04,24,13,46,16.20
2022,04,24,13,47,16.30
2022,04,24,13,48,16.40
2022,04,24,13,49,16.50
2022,04,24,13,50,16.60
2022,04,24,13,51,16.60
2022,04,24,13,52,16.60
2022,04,24,13,53,16.70
2022,04,24,13,54,16.70
2022,04,24,13,55,16.80
2022,04,24,13,56,16.80
2022,04,24,13,57,16.80
2022,04,24,13,58,16.80
2022,04,24,13,59,16.80
2022,04,24,14,00,16.80
2022,04,24,14,01,16.70
2022,04,24,14,02,16.70
2022,04,24,14,03,16.70
2022,04,24,14,04,16.70
2022,04,24,14,05,16.70
2022,04,24,14,06,16.70
2022,04,24,14,07,16.70
2022,04,24,14,08,16.60
2022,04,24,14,09,16.50
2022,04,24,14,10,16.50
2022,04,24,14,11,16.50
2022,04,24,14,12,16.40
2022,04,24,14,13,16.30
2022,04,24,14,14,16.30
2022,04,24,14,15,16.20
2022,04,24,14,16,16.10
2022,04,24,14,17,16.10
2022,04,24,14,18,16.10
2022,04,24,14,19,16.10
2022,04,24,14,20,16.10
2022,04,24,14,21,16.20
2022,04,24,14,22,16.20
2022,04,24,14,23,16.20
2022,04,24,14,24,16.20
2022,04,24,14,25,16.20
2022,04,24,14,26,16.20
2022,04,24,14,27,16.20
2022,04,24,14,28,16.20
2022,04,24,14,29,16.20
2022,04,24,14,30,16.30
2022,04,24,14,31,16.20
2022,04,24,14,32,16.20
2022,04,24,14,33,16.20
2022,04,24,14,34,16.30
2022,04,24,14,35,16.30
2022,04,24,14,36,16.30
2022,04,24,14,37,16.40
2022,04,24,14,38,16.40
2022,04,24,14,39,16.40
2022,04,24,14,40,16.30
2022,04,24,14,41,16.30
2022,04,24,14,42,16.20
2022,04,24,14,43,16.20
2022,04,24,14,44,16.10
2022,04,24,14,45,16.10
2022,04,24,14,46,16.00
2022,04,24,14,47,15.90
2022,04,24,14,48,15.90
2022,04,24,14,49,15.80
2022,04,24,14,50,15.80
2022,04,24,14,51,15.80
2022,04,24,14,52,15.80
2022,04,24,14,53,15.80
2022,04,24,14,54,15.80
2022,04,24,14,55,15.70
2022,04,24,14,56,15.70
2022,04,24,14,57,15.70
2022,04,24,14,58,15.70
2022,04,24,14,59,15.70
2022,04,24,15,00,15.80
2022,04,24,15,01,15.80
2022,04,24,15,02,15.80
2022,04,24,15,03,15.80
2022,04,24,15,04,15.70
2022,04,24,15,05,15.70
2022,04,24,15,06,15.70
2022,04,24,15,07,15.70
2022,04,24,15,08,15.70
2022,04,24,15,09,15.70
2022,04,24,15,10,15.70
2022,04,24,15,11,15.70
2022,04,24,15,12,15.70
2022,04,24,15,13,15.70
2022,04,24,15,14,15.70
2022,04,24,15,15,15.80
2022,04,24,15,16,15.80
2022,04,24,15,17,15.80
2022,04,24,15,18,15.80
2022,04,24,15,19,15.80
2022,04,24,15,20,15.80
2022,04,24,15,21,15.90
2022,04,24,15,22,16.00
2022,04,24,15,23,16.00
2022,04,24,15,24,16.10
2022,04,24,15,25,16.10
2022,04,24,15,26,16.20
2022,04,24,15,27,16.30
2022,04,24,15,28,16.30
2022,04,24,15,29,16.40
2022,04,24,15,30,16.50
2022,04,24,15,31,16.60
2022,04,24,15,32,16.60
2022,04,24,15,33,16.70
2022,04,24,15,34,16.80
2022,04,24,15,35,16.80
2022,04,24,15,36,16.90
2022,04,24,15,37,16.90
2022,04,24,15,38,17.00
2022,04,24,15,39,17.10
2022,04,24,15,40,17.20
2022,04,24,15,41,17.20
2022,04,24,15,42,17.30
2022,04,24,15,43,17.40
2022,04,24,15,44,17.40
2022,04,24,15,45,17.50
2022,04,24,15,46,17.50
2022,04,24,15,47,17.50
2022,04,24,15,48,17.60
2022,04,24,15,49,17.60
2022,04,24,15,50,17.70
2022,04,24,15,51,17.70
2022,04,24,15,52,17.70
2022,04,24,15,53,17.80
2022,04,24,15,54,17.80
2022,04,24,15,55,17.80
2022,04,24,15,56,17.80
2022,04,24,15,57,17.90
2022,04,24,15,58,18.00
2022,04,24,15,59,18.00
2022,04,24,16,00,18.10
2022,04,24,16,01,18.20
2022,04,24,16,02,18.20
2022,04,24,16,03,18.20
2022,04,24,16,04,18.20
2022,04,24,16,05,18.30
2022,04,24,16,06,18.30
2022,04,24,16,07,18.30
2022,04,24,16,08,18.20
2022,04,24,16,09,18.20
2022,04,24,16,10,18.20
2022,04,24,16,11,18.20
2022,04,24,16,12,18.20
2022,04,24,16,13,18.30
2022,04,24,16,14,18.30
2022,04,24,16,15,18.30
2022,04,24,16,16,18.30
2022,04,24,16,17,18.30
2022,04,24,16,18,18.30
2022,04,24,16,19,18.30
2022,04,24,16,20,18.30
2022,04,24,16,21,18.40
2022,04,24,16,22,18.40
2022,04,24,16,23,18.40
2022,04,24,16,24,18.50
2022,04,24,16,25,18.50
2022,04,24,16,26,18.50
2022,04,24,16,27,18.50
2022,04,24,16,28,18.50
2022,04,24,16,29,18.40
2022,04,24,16,30,18.40
2022,04,24,16,31,18.40
2022,04,24,16,32,18.50
2022,04,24,16,33,18.50
2022,04,24,16,34,18.50
2022,04,24,16,35,18.50
2022,04,24,16,36,18.50
2022,04,24,16,37,18.40
2022,04,24,16,38,18.30
2022,04,24,16,39,18.30
2022,04,24,16,40,18.20
2022,04,24,16,41,18.20
2022,04,24,16,42,18.20
2022,04,24,16,43,18.10
2022,04,24,16,44,18.00
2022,04,24,16,45,17.90
2022,04,24,16,46,17.80
2022,04,24,16,47,17.80
2022,04,24,16,48,17.70
2022,04,24,16,49,17.70
2022,04,24,16,50,17.70
2022,04,24,16,51,17.70
2022,04,24,16,52,17.70
2022,04,24,16,53,17.70
2022,04,24,16,54,17.70
2022,04,24,16,55,17.70
2022,04,24,16,56,17.70
2022,04,24,16,57,17.70
2022,04,24,16,58,17.70
2022,04,24,16,59,17.80
2022,04,24,17,00,17.70
2022,04,24,17,01,17.80
2022,04,24,17,02,17.70
2022,04,24,17,03,17.70
2022,04,24,17,04,17.70
2022,04,24,17,05,17.70
2022,04,24,17,06,17.70
2022,04,24,17,07,17.70
2022,04,24,17,08,17.60
2022,04,24,17,09,17.60
2022,04,24,17,10,17.50
2022,04,24,17,11,17.40
2022,04,24,17,12,17.40
2022,04,24,17,13,17.30
2022,04,24,17,14,17.30
2022,04,24,17,15,17.30
2022,04,24,17,16,17.20
2022,04,24,17,17,17.10
2022,04,24,17,18,17.10
2022,04,24,17,19,17.00
2022,04,24,17,20,16.90
2022,04,24,17,21,16.90
2022,04,24,17,22,16.80
2022,04,24,17,23,16.70
2022,04,24,17,24,16.70
2022,04,24,17,25,16.70
2022,04,24,17,26,16.50
2022,04,24,17,27,16.40
2022,04,24,17,28,16.40
2022,04,24,17,29,16.30
2022,04,24,17,30,16.20
2022,04,24,17,31,16.20
2022,04,24,17,32,16.10
2022,04,24,17,33,16.00
2022,04,24,17,34,15.90
2022,04,24,17,35,15.90
2022,04,24,17,36,15.80
2022,04,24,17,37,15.70
2022,04,24,17,38,15.70
2022,04,24,17,39,15.60
2022,04,24,17,40,15.50
2022,04,24,17,41,15.50